This is the latest recevied weather packets stored in our database for station/object RN1M-13. If no packets are shown the sender has not sent any weather packets the latest 10 day(s).
| Time | Temp. | Humidity | Pressure | Rain* | Wind** | Luminosity | Snow |
|---|---|---|---|---|---|---|---|
| 1777624395 | 12.78° C | 100% | 1018.1 hPa | - | - | - | - |
| 1777623495 | 11.67° C | 100% | 1017.2 hPa | - | - | - | - |
| 1777622597 | 11.11° C | 100% | 1017.2 hPa | - | - | - | - |
| 1777621701 | 11.11° C | 100% | 1016.6 hPa | - | - | - | - |
| 1777620801 | 11.67° C | 100% | 1016.3 hPa | - | - | - | - |
| 1777619901 | 11.67° C | 100% | 1016.1 hPa | - | - | - | - |
| 1777619001 | 10.56° C | 100% | 1016.1 hPa | - | - | - | - |
| 1777618101 | 10.56° C | 100% | 1015.9 hPa | - | - | - | - |
| 1777617201 | 12.22° C | 100% | 1015.3 hPa | - | - | - | - |
| 1777616301 | 12.22° C | 100% | 1014.8 hPa | - | - | - | - |
| 1777615401 | 11.11° C | 100% | 1014.8 hPa | - | - | - | - |
| 1777614501 | 13.33° C | 100% | 1013.8 hPa | - | - | - | - |
| 1777613601 | 12.78° C | 100% | 1014.1 hPa | - | - | - | - |
| 1777612701 | 12.78° C | 100% | 1013.8 hPa | - | - | - | - |
| 1777611803 | 12.78° C | 100% | 1014.1 hPa | - | - | - | - |
| 1777610906 | 11.11° C | 100% | 1013.2 hPa | - | - | - | - |
| 1777610006 | 12.22° C | 100% | 1012 hPa | - | - | - | - |
| 1777609106 | 8.33° C | 100% | 1011.1 hPa | - | - | - | - |
| 1777608205 | 8.89° C | 100% | 1009.6 hPa | - | - | - | - |
| 1777607305 | 7.78° C | 100% | 1009.9 hPa | - | - | - | - |
| 1777606405 | 7.22° C | 100% | 1008.8 hPa | - | - | - | - |
| 1777605505 | 6.67° C | 100% | 1009 hPa | - | - | - | - |
| 1777604605 | 7.22° C | 100% | 1008.2 hPa | - | - | - | - |
| 1777603705 | 6.67° C | 100% | 1008.2 hPa | - | - | - | - |
| 1777602805 | 6.11° C | 100% | 1008.5 hPa | - | - | - | - |
* Rain since midnight (hover to see other rain measurements)
** Current wind speed in m/s (hover to see current wind gust speed)